Overview Statistics Trail Chart Weather Telemetry Raw packets
 

This is the latest recevied weather packets stored in our database for station/object EA1HEH-13. If no packets are shown the sender has not sent any weather packets the latest 10 day(s).

<< 49 50 51 52 53 54 55 >>
Time Temp. Humidity Pressure Rain* Wind** Luminosity Snow
1787846678 19.44° C 42% 933.8 hPa - - - -
1787846078 20° C 42% 933.7 hPa - - - -
1787845478 20° C 42% 933.6 hPa - - - -
1787844878 20.56° C 43% 933.2 hPa - - - -
1787844278 20.56° C 42% 932.9 hPa - - - -
1787843678 20.56° C 42% 932.7 hPa - - - -
1787843078 20.56° C 44% 932.8 hPa - - - -
1787842478 20° C 44% 932.8 hPa - - - -
1787841878 20.56° C 47% 932.7 hPa - - - -
1787841278 20° C 48% 932.8 hPa - - - -
1787840678 20° C 49% 932.9 hPa - - - -
1787840078 19.44° C 49% 933 hPa - - - -
1787839478 18.89° C 48% 933 hPa - - - -
1787838878 18.89° C 48% 933.1 hPa - - - -
1787838278 18.89° C 48% 933.3 hPa - - - -
1787837678 18.33° C 48% 933.4 hPa - - - -
1787837078 18.33° C 46% 933.2 hPa - - - -
1787836478 18.89° C 44% 933.5 hPa - - - -
1787835878 19.44° C 40% 933.3 hPa - - - -
1787835278 20° C 37% 933.3 hPa - - - -
1787834677 20° C 34% 933.1 hPa - - - -
1787834078 20° C 32% 933 hPa - - - -
1787833477 20.56° C 30% 932.9 hPa - - - -
1787832877 21.11° C 28% 932.5 hPa - - - -
1787832277 21.67° C 27% 932.1 hPa - - - -

* Rain since midnight (hover to see other rain measurements)
** Current wind speed in m/s (hover to see current wind gust speed)